Year,Month,Day,Hour,Minute,Value (Times are PST for temperature in C)
2010,04,16,00,00,6.20
2010,04,16,00,01,6.20
2010,04,16,00,02,6.20
2010,04,16,00,03,6.20
2010,04,16,00,04,6.20
2010,04,16,00,05,6.20
2010,04,16,00,06,6.20
2010,04,16,00,07,6.20
2010,04,16,00,08,6.20
2010,04,16,00,09,6.20
2010,04,16,00,10,6.20
2010,04,16,00,11,6.20
2010,04,16,00,12,6.20
2010,04,16,00,13,6.20
2010,04,16,00,14,6.20
2010,04,16,00,15,6.20
2010,04,16,00,16,6.20
2010,04,16,00,17,6.20
2010,04,16,00,18,6.20
2010,04,16,00,19,6.20
2010,04,16,00,20,6.10
2010,04,16,00,21,6.10
2010,04,16,00,22,6.10
2010,04,16,00,23,6.10
2010,04,16,00,24,6.10
2010,04,16,00,25,6.10
2010,04,16,00,26,6.10
2010,04,16,00,27,6.10
2010,04,16,00,28,6.10
2010,04,16,00,29,6.10
2010,04,16,00,30,6.10
2010,04,16,00,31,6.10
2010,04,16,00,32,6.00
2010,04,16,00,33,6.00
2010,04,16,00,34,6.00
2010,04,16,00,35,6.00
2010,04,16,00,36,6.00
2010,04,16,00,37,6.00
2010,04,16,00,38,6.00
2010,04,16,00,39,5.90
2010,04,16,00,40,5.90
2010,04,16,00,41,5.90
2010,04,16,00,42,5.90
2010,04,16,00,43,5.90
2010,04,16,00,44,5.90
2010,04,16,00,45,5.90
2010,04,16,00,46,5.90
2010,04,16,00,47,5.90
2010,04,16,00,48,5.90
2010,04,16,00,49,5.80
2010,04,16,00,50,5.80
2010,04,16,00,51,5.80
2010,04,16,00,52,5.80
2010,04,16,00,53,5.80
2010,04,16,00,54,5.80
2010,04,16,00,55,5.80
2010,04,16,00,56,5.80
2010,04,16,00,57,5.80
2010,04,16,00,58,5.80
2010,04,16,00,59,5.80
2010,04,16,01,00,5.80
2010,04,16,01,01,5.80
2010,04,16,01,02,5.80
2010,04,16,01,03,5.80
2010,04,16,01,04,5.80
2010,04,16,01,05,5.80
2010,04,16,01,06,5.80
2010,04,16,01,07,5.70
2010,04,16,01,08,5.70
2010,04,16,01,09,5.70
2010,04,16,01,10,5.70
2010,04,16,01,11,5.70
2010,04,16,01,12,5.70
2010,04,16,01,13,5.70
2010,04,16,01,14,5.60
2010,04,16,01,15,5.60
2010,04,16,01,16,5.60
2010,04,16,01,17,5.60
2010,04,16,01,18,5.60
2010,04,16,01,19,5.60
2010,04,16,01,20,5.60
2010,04,16,01,21,5.60
2010,04,16,01,22,5.60
2010,04,16,01,23,5.60
2010,04,16,01,24,5.60
2010,04,16,01,25,5.60
2010,04,16,01,26,5.70
2010,04,16,01,27,5.70
2010,04,16,01,28,5.70
2010,04,16,01,29,5.70
2010,04,16,01,30,5.70
2010,04,16,01,31,5.70
2010,04,16,01,32,5.70
2010,04,16,01,33,5.70
2010,04,16,01,34,5.70
2010,04,16,01,35,5.70
2010,04,16,01,36,5.70
2010,04,16,01,37,5.70
2010,04,16,01,38,5.70
2010,04,16,01,39,5.70
2010,04,16,01,40,5.70
2010,04,16,01,41,5.70
2010,04,16,01,42,5.70
2010,04,16,01,43,5.70
2010,04,16,01,44,5.70
2010,04,16,01,45,5.70
2010,04,16,01,46,5.70
2010,04,16,01,47,5.70
2010,04,16,01,48,5.70
2010,04,16,01,49,5.70
2010,04,16,01,50,5.70
2010,04,16,01,51,5.70
2010,04,16,01,52,5.70
2010,04,16,01,53,5.70
2010,04,16,01,54,5.60
2010,04,16,01,55,5.60
2010,04,16,01,56,5.60
2010,04,16,01,57,5.60
2010,04,16,01,58,5.60
2010,04,16,01,59,5.60
2010,04,16,02,00,5.60
2010,04,16,02,01,5.60
2010,04,16,02,02,5.60
2010,04,16,02,03,5.60
2010,04,16,02,04,5.60
2010,04,16,02,05,5.60
2010,04,16,02,06,5.60
2010,04,16,02,07,5.60
2010,04,16,02,08,5.60
2010,04,16,02,09,5.60
2010,04,16,02,10,5.50
2010,04,16,02,11,5.50
2010,04,16,02,12,5.50
2010,04,16,02,13,5.50
2010,04,16,02,14,5.50
2010,04,16,02,15,5.50
2010,04,16,02,16,5.40
2010,04,16,02,17,5.40
2010,04,16,02,18,5.40
2010,04,16,02,19,5.40
2010,04,16,02,20,5.40
2010,04,16,02,21,5.30
2010,04,16,02,22,5.30
2010,04,16,02,23,5.30
2010,04,16,02,24,5.30
2010,04,16,02,25,5.30
2010,04,16,02,26,5.30
2010,04,16,02,27,5.20
2010,04,16,02,28,5.20
2010,04,16,02,29,5.20
2010,04,16,02,30,5.20
2010,04,16,02,31,5.20
2010,04,16,02,32,5.20
2010,04,16,02,33,5.20
2010,04,16,02,34,5.10
2010,04,16,02,35,5.10
2010,04,16,02,36,5.10
2010,04,16,02,37,5.10
2010,04,16,02,38,5.10
2010,04,16,02,39,5.10
2010,04,16,02,40,5.10
2010,04,16,02,41,5.10
2010,04,16,02,42,5.10
2010,04,16,02,43,5.10
2010,04,16,02,44,5.10
2010,04,16,02,45,5.00
2010,04,16,02,46,5.00
2010,04,16,02,47,5.00
2010,04,16,02,48,5.00
2010,04,16,02,49,5.00
2010,04,16,02,50,5.00
2010,04,16,02,51,5.00
2010,04,16,02,52,5.00
2010,04,16,02,53,5.00
2010,04,16,02,54,5.00
2010,04,16,02,55,5.00
2010,04,16,02,56,5.00
2010,04,16,02,57,5.00
2010,04,16,02,58,5.00
2010,04,16,02,59,5.00
2010,04,16,03,00,5.00
2010,04,16,03,01,5.00
2010,04,16,03,02,5.00
2010,04,16,03,03,5.00
2010,04,16,03,04,5.00
2010,04,16,03,05,5.00
2010,04,16,03,06,5.00
2010,04,16,03,07,5.00
2010,04,16,03,08,5.00
2010,04,16,03,09,5.00
2010,04,16,03,10,5.00
2010,04,16,03,11,5.10
2010,04,16,03,12,5.10
2010,04,16,03,13,5.20
2010,04,16,03,14,5.30
2010,04,16,03,15,5.50
2010,04,16,03,16,5.60
2010,04,16,03,17,5.70
2010,04,16,03,18,5.80
2010,04,16,03,19,5.90
2010,04,16,03,20,5.90
2010,04,16,03,21,6.00
2010,04,16,03,22,6.10
2010,04,16,03,23,6.10
2010,04,16,03,24,6.20
2010,04,16,03,25,6.20
2010,04,16,03,26,6.20
2010,04,16,03,27,6.30
2010,04,16,03,28,6.30
2010,04,16,03,29,6.30
2010,04,16,03,30,6.40
2010,04,16,03,31,6.40
2010,04,16,03,32,6.40
2010,04,16,03,33,6.50
2010,04,16,03,34,6.50
2010,04,16,03,35,6.50
2010,04,16,03,36,6.50
2010,04,16,03,37,6.60
2010,04,16,03,38,6.60
2010,04,16,03,39,6.60
2010,04,16,03,40,6.60
2010,04,16,03,41,6.60
2010,04,16,03,42,6.60
2010,04,16,03,43,6.50
2010,04,16,03,44,6.50
2010,04,16,03,45,6.50
2010,04,16,03,46,6.50
2010,04,16,03,47,6.40
2010,04,16,03,48,6.40
2010,04,16,03,49,6.40
2010,04,16,03,50,6.40
2010,04,16,03,51,6.40
2010,04,16,03,52,6.40
2010,04,16,03,53,6.40
2010,04,16,03,54,6.40
2010,04,16,03,55,6.50
2010,04,16,03,56,6.50
2010,04,16,03,57,6.50
2010,04,16,03,58,6.60
2010,04,16,03,59,6.60
2010,04,16,04,00,6.60
2010,04,16,04,01,6.60
2010,04,16,04,02,6.60
2010,04,16,04,03,6.60
2010,04,16,04,04,6.60
2010,04,16,04,05,6.60
2010,04,16,04,06,6.60
2010,04,16,04,07,6.60
2010,04,16,04,08,6.60
2010,04,16,04,09,6.60
2010,04,16,04,10,6.60
2010,04,16,04,11,6.50
2010,04,16,04,12,6.50
2010,04,16,04,13,6.50
2010,04,16,04,14,6.50
2010,04,16,04,15,6.50
2010,04,16,04,16,6.50
2010,04,16,04,17,6.40
2010,04,16,04,18,6.40
2010,04,16,04,19,6.50
2010,04,16,04,20,6.50
2010,04,16,04,21,6.50
2010,04,16,04,22,6.60
2010,04,16,04,23,6.60
2010,04,16,04,24,6.60
2010,04,16,04,25,6.60
2010,04,16,04,26,6.60
2010,04,16,04,27,6.50
2010,04,16,04,28,6.50
2010,04,16,04,29,6.40
2010,04,16,04,30,6.40
2010,04,16,04,31,6.40
2010,04,16,04,32,6.30
2010,04,16,04,33,6.30
2010,04,16,04,34,6.20
2010,04,16,04,35,6.20
2010,04,16,04,36,6.20
2010,04,16,04,37,6.10
2010,04,16,04,38,6.10
2010,04,16,04,39,6.10
2010,04,16,04,40,6.10
2010,04,16,04,41,6.10
2010,04,16,04,42,6.10
2010,04,16,04,43,6.10
2010,04,16,04,44,6.10
2010,04,16,04,45,6.10
2010,04,16,04,46,6.20
2010,04,16,04,47,6.20
2010,04,16,04,48,6.20
2010,04,16,04,49,6.20
2010,04,16,04,50,6.20
2010,04,16,04,51,6.20
2010,04,16,04,52,6.30
2010,04,16,04,53,6.30
2010,04,16,04,54,6.30
2010,04,16,04,55,6.40
2010,04,16,04,56,6.40
2010,04,16,04,57,6.40
2010,04,16,04,58,6.40
2010,04,16,04,59,6.50
2010,04,16,05,00,6.40
2010,04,16,05,01,6.40
2010,04,16,05,02,6.40
2010,04,16,05,03,6.40
2010,04,16,05,04,6.30
2010,04,16,05,05,6.20
2010,04,16,05,06,6.20
2010,04,16,05,07,6.20
2010,04,16,05,08,6.10
2010,04,16,05,09,6.10
2010,04,16,05,10,6.10
2010,04,16,05,11,6.00
2010,04,16,05,12,6.00
2010,04,16,05,13,6.00
2010,04,16,05,14,6.00
2010,04,16,05,15,5.90
2010,04,16,05,16,5.90
2010,04,16,05,17,5.90
2010,04,16,05,18,5.90
2010,04,16,05,19,5.90
2010,04,16,05,20,5.90
2010,04,16,05,21,5.90
2010,04,16,05,22,5.90
2010,04,16,05,23,5.90
2010,04,16,05,24,5.90
2010,04,16,05,25,5.80
2010,04,16,05,26,5.80
2010,04,16,05,27,5.80
2010,04,16,05,28,5.80
2010,04,16,05,29,5.80
2010,04,16,05,30,5.80
2010,04,16,05,31,5.80
2010,04,16,05,32,5.80
2010,04,16,05,33,5.70
2010,04,16,05,34,5.70
2010,04,16,05,35,5.70
2010,04,16,05,36,5.70
2010,04,16,05,37,5.70
2010,04,16,05,38,5.60
2010,04,16,05,39,5.60
2010,04,16,05,40,5.60
2010,04,16,05,41,5.60
2010,04,16,05,42,5.50
2010,04,16,05,43,5.50
2010,04,16,05,44,5.50
2010,04,16,05,45,5.50
2010,04,16,05,46,5.40
2010,04,16,05,47,5.40
2010,04,16,05,48,5.50
2010,04,16,05,49,5.50
2010,04,16,05,50,5.50
2010,04,16,05,51,5.50
2010,04,16,05,52,5.50
2010,04,16,05,53,5.50
2010,04,16,05,54,5.50
2010,04,16,05,55,5.50
2010,04,16,05,56,5.50
2010,04,16,05,57,5.50
2010,04,16,05,58,5.50
2010,04,16,05,59,5.50
2010,04,16,06,00,5.60
2010,04,16,06,01,5.60
2010,04,16,06,02,5.60
2010,04,16,06,03,5.60
2010,04,16,06,04,5.60
2010,04,16,06,05,5.60
2010,04,16,06,06,5.70
2010,04,16,06,07,5.70
2010,04,16,06,08,5.80
2010,04,16,06,09,5.80
2010,04,16,06,10,5.90
2010,04,16,06,11,6.00
2010,04,16,06,12,6.00
2010,04,16,06,13,6.20
2010,04,16,06,14,6.20
2010,04,16,06,15,6.40
2010,04,16,06,16,6.50
2010,04,16,06,17,6.50
2010,04,16,06,18,6.60
2010,04,16,06,19,6.70
2010,04,16,06,20,6.70
2010,04,16,06,21,6.70
2010,04,16,06,22,6.70
2010,04,16,06,23,6.80
2010,04,16,06,24,6.80
2010,04,16,06,25,6.80
2010,04,16,06,26,6.80
2010,04,16,06,27,6.80
2010,04,16,06,28,6.80
2010,04,16,06,29,6.70
2010,04,16,06,30,6.70
2010,04,16,06,31,6.70
2010,04,16,06,32,6.70
2010,04,16,06,33,6.70
2010,04,16,06,34,6.70
2010,04,16,06,35,6.70
2010,04,16,06,36,6.70
2010,04,16,06,37,6.70
2010,04,16,06,38,6.70
2010,04,16,06,39,6.70
2010,04,16,06,40,6.70
2010,04,16,06,41,6.70
2010,04,16,06,42,6.80
2010,04,16,06,43,6.80
2010,04,16,06,44,6.80
2010,04,16,06,45,6.70
2010,04,16,06,46,6.70
2010,04,16,06,47,6.70
2010,04,16,06,48,6.70
2010,04,16,06,49,6.70
2010,04,16,06,50,6.70
2010,04,16,06,51,6.70
2010,04,16,06,52,6.70
2010,04,16,06,53,6.80
2010,04,16,06,54,6.80
2010,04,16,06,55,6.80
2010,04,16,06,56,6.80
2010,04,16,06,57,6.80
2010,04,16,06,58,6.80
2010,04,16,06,59,6.90
2010,04,16,07,00,6.90
2010,04,16,07,01,6.90
2010,04,16,07,02,6.90
2010,04,16,07,03,7.00
2010,04,16,07,04,7.00
2010,04,16,07,05,7.10
2010,04,16,07,06,7.20
2010,04,16,07,07,7.20
2010,04,16,07,08,7.30
2010,04,16,07,09,7.30
2010,04,16,07,10,7.30
2010,04,16,07,11,7.40
2010,04,16,07,12,7.50
2010,04,16,07,13,7.50
2010,04,16,07,14,7.60
2010,04,16,07,15,7.70
2010,04,16,07,16,7.70
2010,04,16,07,17,7.70
2010,04,16,07,18,7.80
2010,04,16,07,19,7.80
2010,04,16,07,20,7.80
2010,04,16,07,21,7.90
2010,04,16,07,22,7.90
2010,04,16,07,23,7.90
2010,04,16,07,24,8.00
2010,04,16,07,25,8.00
2010,04,16,07,26,8.00
2010,04,16,07,27,8.10
2010,04,16,07,28,8.10
2010,04,16,07,29,8.10
2010,04,16,07,30,8.10
2010,04,16,07,31,8.10
2010,04,16,07,32,8.20
2010,04,16,07,33,8.20
2010,04,16,07,34,8.20
2010,04,16,07,35,8.20
2010,04,16,07,36,8.20
2010,04,16,07,37,8.20
2010,04,16,07,38,8.20
2010,04,16,07,39,8.30
2010,04,16,07,40,8.30
2010,04,16,07,41,8.30
2010,04,16,07,42,8.40
2010,04,16,07,43,8.40
2010,04,16,07,44,8.40
2010,04,16,07,45,8.50
2010,04,16,07,46,8.50
2010,04,16,07,47,8.50
2010,04,16,07,48,8.60
2010,04,16,07,49,8.60
2010,04,16,07,50,8.60
2010,04,16,07,51,8.70
2010,04,16,07,52,8.70
2010,04,16,07,53,8.70
2010,04,16,07,54,8.70
2010,04,16,07,55,8.70
2010,04,16,07,56,8.70
2010,04,16,07,57,8.70
2010,04,16,07,58,8.80
2010,04,16,07,59,8.70
2010,04,16,08,00,8.70
2010,04,16,08,01,8.70
2010,04,16,08,02,8.70
2010,04,16,08,03,8.70
2010,04,16,08,04,8.70
2010,04,16,08,05,8.80
2010,04,16,08,06,8.80
2010,04,16,08,07,8.80
2010,04,16,08,08,8.80
2010,04,16,08,09,8.80
2010,04,16,08,10,8.80
2010,04,16,08,11,8.80
2010,04,16,08,12,8.90
2010,04,16,08,13,8.90
2010,04,16,08,14,8.90
2010,04,16,08,15,8.90
2010,04,16,08,16,9.00
2010,04,16,08,17,9.00
2010,04,16,08,18,9.00
2010,04,16,08,19,9.00
2010,04,16,08,20,9.10
2010,04,16,08,21,9.10
2010,04,16,08,22,9.10
2010,04,16,08,23,9.20
2010,04,16,08,24,9.20
2010,04,16,08,25,9.20
2010,04,16,08,26,9.30
2010,04,16,08,27,9.30
2010,04,16,08,28,9.30
2010,04,16,08,29,9.40
2010,04,16,08,30,9.40
2010,04,16,08,31,9.50
2010,04,16,08,32,9.50
2010,04,16,08,33,9.50
2010,04,16,08,34,9.60
2010,04,16,08,35,9.60
2010,04,16,08,36,9.60
2010,04,16,08,37,9.70
2010,04,16,08,38,9.70
2010,04,16,08,39,9.70
2010,04,16,08,40,9.70
2010,04,16,08,41,9.80
2010,04,16,08,42,9.80
2010,04,16,08,43,9.80
2010,04,16,08,44,9.90
2010,04,16,08,45,9.90
2010,04,16,08,46,9.90
2010,04,16,08,47,9.90
2010,04,16,08,48,10.00
2010,04,16,08,49,10.00
2010,04,16,08,50,10.00
2010,04,16,08,51,10.10
2010,04,16,08,52,10.10
2010,04,16,08,53,10.10
2010,04,16,08,54,10.10
2010,04,16,08,55,10.10
2010,04,16,08,56,10.10
2010,04,16,08,57,10.10
2010,04,16,08,58,10.10
2010,04,16,08,59,10.20
2010,04,16,09,00,10.20
2010,04,16,09,01,10.20
2010,04,16,09,02,10.20
2010,04,16,09,03,10.20
2010,04,16,09,04,10.20
2010,04,16,09,05,10.20
2010,04,16,09,06,10.20
2010,04,16,09,07,10.20
2010,04,16,09,08,10.20
2010,04,16,09,09,10.20
2010,04,16,09,10,10.20
2010,04,16,09,11,10.20
2010,04,16,09,12,10.20
2010,04,16,09,13,10.20
2010,04,16,09,14,10.20
2010,04,16,09,15,10.20
2010,04,16,09,16,10.30
2010,04,16,09,17,10.30
2010,04,16,09,18,10.30
2010,04,16,09,19,10.30
2010,04,16,09,20,10.30
2010,04,16,09,21,10.40
2010,04,16,09,22,10.40
2010,04,16,09,23,10.40
2010,04,16,09,24,10.40
2010,04,16,09,25,10.40
2010,04,16,09,26,10.40
2010,04,16,09,27,10.40
2010,04,16,09,28,10.40
2010,04,16,09,29,10.40
2010,04,16,09,30,10.40
2010,04,16,09,31,10.50
2010,04,16,09,32,10.40
2010,04,16,09,33,10.50
2010,04,16,09,34,10.50
2010,04,16,09,35,10.50
2010,04,16,09,36,10.50
2010,04,16,09,37,10.60
2010,04,16,09,38,10.60
2010,04,16,09,39,10.60
2010,04,16,09,40,10.60
2010,04,16,09,41,10.60
2010,04,16,09,42,10.60
2010,04,16,09,43,10.60
2010,04,16,09,44,10.60
2010,04,16,09,45,10.60
2010,04,16,09,46,10.60
2010,04,16,09,47,10.70
2010,04,16,09,48,10.70
2010,04,16,09,49,10.70
2010,04,16,09,50,10.80
2010,04,16,09,51,10.90
2010,04,16,09,52,10.90
2010,04,16,09,53,11.00
2010,04,16,09,54,11.00
2010,04,16,09,55,11.00
2010,04,16,09,56,11.00
2010,04,16,09,57,11.10
2010,04,16,09,58,11.10
2010,04,16,09,59,11.10
2010,04,16,10,00,11.10
2010,04,16,10,01,11.10
2010,04,16,10,02,11.10
2010,04,16,10,03,11.10
2010,04,16,10,04,11.20
2010,04,16,10,05,11.20
2010,04,16,10,06,11.10
2010,04,16,10,07,11.00
2010,04,16,10,08,11.00
2010,04,16,10,09,11.10
2010,04,16,10,10,11.10
2010,04,16,10,11,11.10
2010,04,16,10,12,11.10
2010,04,16,10,13,11.10
2010,04,16,10,14,11.10
2010,04,16,10,15,11.10
2010,04,16,10,16,11.10
2010,04,16,10,17,11.10
2010,04,16,10,18,11.10
2010,04,16,10,19,11.10
2010,04,16,10,20,11.10
2010,04,16,10,21,11.10
2010,04,16,10,22,11.10
2010,04,16,10,23,11.10
2010,04,16,10,24,11.10
2010,04,16,10,25,11.20
2010,04,16,10,26,11.20
2010,04,16,10,27,11.20
2010,04,16,10,28,11.20
2010,04,16,10,29,11.20
2010,04,16,10,30,11.30
2010,04,16,10,31,11.30
2010,04,16,10,32,11.40
2010,04,16,10,33,11.40
2010,04,16,10,34,11.40
2010,04,16,10,35,11.50
2010,04,16,10,36,11.50
2010,04,16,10,37,11.60
2010,04,16,10,38,11.60
2010,04,16,10,39,11.70
2010,04,16,10,40,11.80
2010,04,16,10,41,11.90
2010,04,16,10,42,12.00
2010,04,16,10,43,12.00
2010,04,16,10,44,12.00
2010,04,16,10,45,12.00
2010,04,16,10,46,12.10
2010,04,16,10,47,12.10
2010,04,16,10,48,12.20
2010,04,16,10,49,12.20
2010,04,16,10,50,12.30
2010,04,16,10,51,12.40
2010,04,16,10,52,12.50
2010,04,16,10,53,12.60
2010,04,16,10,54,12.70
2010,04,16,10,55,12.70
2010,04,16,10,56,12.80
2010,04,16,10,57,12.80
2010,04,16,10,58,12.80
2010,04,16,10,59,12.80
2010,04,16,11,00,12.90
2010,04,16,11,01,12.90
2010,04,16,11,02,12.80
2010,04,16,11,03,12.80
2010,04,16,11,04,12.80
2010,04,16,11,05,12.80
2010,04,16,11,06,12.90
2010,04,16,11,07,12.90
2010,04,16,11,08,12.80
2010,04,16,11,09,12.80
2010,04,16,11,10,12.80
2010,04,16,11,11,12.80
2010,04,16,11,12,12.80
2010,04,16,11,13,12.80
2010,04,16,11,14,12.90
2010,04,16,11,15,13.00
2010,04,16,11,16,13.10
2010,04,16,11,17,13.10
2010,04,16,11,18,13.10
2010,04,16,11,19,13.20
2010,04,16,11,20,13.30
2010,04,16,11,21,13.30
2010,04,16,11,22,13.30
2010,04,16,11,23,13.30
2010,04,16,11,24,13.30
2010,04,16,11,25,13.30
2010,04,16,11,26,13.30
2010,04,16,11,27,13.40
2010,04,16,11,28,13.40
2010,04,16,11,29,13.40
2010,04,16,11,30,13.40
2010,04,16,11,31,13.40
2010,04,16,11,32,13.50
2010,04,16,11,33,13.50
2010,04,16,11,34,13.50
2010,04,16,11,35,13.60
2010,04,16,11,36,13.60
2010,04,16,11,37,13.50
2010,04,16,11,38,13.60
2010,04,16,11,39,13.50
2010,04,16,11,40,13.50
2010,04,16,11,41,13.50
2010,04,16,11,42,13.40
2010,04,16,11,43,13.50
2010,04,16,11,44,13.50
2010,04,16,11,45,13.50
2010,04,16,11,46,13.40
2010,04,16,11,47,13.40
2010,04,16,11,48,13.40
2010,04,16,11,49,13.30
2010,04,16,11,50,13.30
2010,04,16,11,51,13.30
2010,04,16,11,52,13.30
2010,04,16,11,53,13.30
2010,04,16,11,54,13.30
2010,04,16,11,55,13.30
2010,04,16,11,56,13.30
2010,04,16,11,57,13.30
2010,04,16,11,58,13.40
2010,04,16,11,59,13.40
2010,04,16,12,00,13.40
2010,04,16,12,01,13.40
2010,04,16,12,02,13.40
2010,04,16,12,03,13.50
2010,04,16,12,04,13.50
2010,04,16,12,05,13.60
2010,04,16,12,06,13.60
2010,04,16,12,07,13.60
2010,04,16,12,08,13.70
2010,04,16,12,09,13.70
2010,04,16,12,10,13.70
2010,04,16,12,11,13.70
2010,04,16,12,12,13.70
2010,04,16,12,13,13.70
2010,04,16,12,14,13.80
2010,04,16,12,15,13.80
2010,04,16,12,16,13.90
2010,04,16,12,17,13.90
2010,04,16,12,18,14.00
2010,04,16,12,19,14.10
2010,04,16,12,20,14.10
2010,04,16,12,21,14.10
2010,04,16,12,22,14.10
2010,04,16,12,23,14.00
2010,04,16,12,24,14.00
2010,04,16,12,25,14.00
2010,04,16,12,26,14.00
2010,04,16,12,27,14.00
2010,04,16,12,28,14.00
2010,04,16,12,29,14.00
2010,04,16,12,30,14.10
2010,04,16,12,31,14.10
2010,04,16,12,32,14.10
2010,04,16,12,33,14.00
2010,04,16,12,34,14.10
2010,04,16,12,35,14.10
2010,04,16,12,36,14.10
2010,04,16,12,37,14.10
2010,04,16,12,38,14.20
2010,04,16,12,39,14.20
2010,04,16,12,40,14.30
2010,04,16,12,41,14.40
2010,04,16,12,42,14.50
2010,04,16,12,43,14.50
2010,04,16,12,44,14.50
2010,04,16,12,45,14.50
2010,04,16,12,46,14.50
2010,04,16,12,47,14.60
2010,04,16,12,48,14.60
2010,04,16,12,49,14.60
2010,04,16,12,50,14.70
2010,04,16,12,51,14.70
2010,04,16,12,52,14.70
2010,04,16,12,53,14.80
2010,04,16,12,54,14.70
2010,04,16,12,55,14.70
2010,04,16,12,56,14.60
2010,04,16,12,57,14.60
2010,04,16,12,58,14.70
2010,04,16,12,59,14.70
2010,04,16,13,00,14.70
2010,04,16,13,01,14.70
2010,04,16,13,02,14.70
2010,04,16,13,03,14.70
2010,04,16,13,04,14.70
2010,04,16,13,05,14.70
2010,04,16,13,06,14.80
2010,04,16,13,07,14.80
2010,04,16,13,08,14.80
2010,04,16,13,09,14.90
2010,04,16,13,10,14.90
2010,04,16,13,11,15.00
2010,04,16,13,12,15.00
2010,04,16,13,13,15.00
2010,04,16,13,14,15.10
2010,04,16,13,15,15.10
2010,04,16,13,16,15.10
2010,04,16,13,17,15.00
2010,04,16,13,18,15.00
2010,04,16,13,19,15.00
2010,04,16,13,20,15.00
2010,04,16,13,21,15.00
2010,04,16,13,22,14.90
2010,04,16,13,23,14.90
2010,04,16,13,24,14.90
2010,04,16,13,25,14.90
2010,04,16,13,26,14.90
2010,04,16,13,27,14.90
2010,04,16,13,28,15.00
2010,04,16,13,29,14.90
2010,04,16,13,30,15.00
2010,04,16,13,31,15.00
2010,04,16,13,32,15.00
2010,04,16,13,33,15.00
2010,04,16,13,34,15.00
2010,04,16,13,35,15.10
2010,04,16,13,36,15.10
2010,04,16,13,37,15.10
2010,04,16,13,38,15.20
2010,04,16,13,39,15.20
2010,04,16,13,40,15.30
2010,04,16,13,41,15.20
2010,04,16,13,42,15.20
2010,04,16,13,43,15.10
2010,04,16,13,44,15.10
2010,04,16,13,45,15.00
2010,04,16,13,46,14.90
2010,04,16,13,47,14.90
2010,04,16,13,48,14.80
2010,04,16,13,49,14.80
2010,04,16,13,50,14.80
2010,04,16,13,51,14.80
2010,04,16,13,52,14.80
2010,04,16,13,53,14.80
2010,04,16,13,54,14.80
2010,04,16,13,55,14.90
2010,04,16,13,56,14.90
2010,04,16,13,57,14.90
2010,04,16,13,58,14.90
2010,04,16,13,59,14.90
2010,04,16,14,00,14.90
2010,04,16,14,01,14.90
2010,04,16,14,02,15.00
2010,04,16,14,03,15.00
2010,04,16,14,04,15.10
2010,04,16,14,05,15.20
2010,04,16,14,06,15.30
2010,04,16,14,07,15.30
2010,04,16,14,08,15.30
2010,04,16,14,09,15.30
2010,04,16,14,10,15.40
2010,04,16,14,11,15.40
2010,04,16,14,12,15.40
2010,04,16,14,13,15.40
2010,04,16,14,14,15.40
2010,04,16,14,15,15.40
2010,04,16,14,16,15.40
2010,04,16,14,17,15.30
2010,04,16,14,18,15.30
2010,04,16,14,19,15.40
2010,04,16,14,20,15.40
2010,04,16,14,21,15.50
2010,04,16,14,22,15.50
2010,04,16,14,23,15.50
2010,04,16,14,24,15.40
2010,04,16,14,25,15.40
2010,04,16,14,26,15.40
2010,04,16,14,27,15.40
2010,04,16,14,28,15.40
2010,04,16,14,29,15.40
2010,04,16,14,30,15.40
2010,04,16,14,31,15.40
2010,04,16,14,32,15.40
2010,04,16,14,33,15.40
2010,04,16,14,34,15.50
2010,04,16,14,35,15.50
2010,04,16,14,36,15.50
2010,04,16,14,37,15.60
2010,04,16,14,38,15.60
2010,04,16,14,39,15.70
2010,04,16,14,40,15.70
2010,04,16,14,41,15.70
2010,04,16,14,42,15.80
2010,04,16,14,43,15.80
2010,04,16,14,44,15.80
2010,04,16,14,45,15.80
2010,04,16,14,46,15.80
2010,04,16,14,47,15.80
2010,04,16,14,48,15.90
2010,04,16,14,49,15.90
2010,04,16,14,50,16.00
2010,04,16,14,51,16.00
2010,04,16,14,52,16.00
2010,04,16,14,53,16.10
2010,04,16,14,54,16.10
2010,04,16,14,55,16.20
2010,04,16,14,56,16.20
2010,04,16,14,57,16.30
2010,04,16,14,58,16.30
2010,04,16,14,59,16.30
2010,04,16,15,00,16.30
2010,04,16,15,01,16.30
2010,04,16,15,02,16.30
2010,04,16,15,03,16.40
2010,04,16,15,04,16.40
2010,04,16,15,05,16.50
2010,04,16,15,06,16.50
2010,04,16,15,07,16.50
2010,04,16,15,08,16.40
2010,04,16,15,09,16.40
2010,04,16,15,10,16.40
2010,04,16,15,11,16.50
2010,04,16,15,12,16.50
2010,04,16,15,13,16.60
2010,04,16,15,14,16.70
2010,04,16,15,15,16.80
2010,04,16,15,16,16.80
2010,04,16,15,17,16.90
2010,04,16,15,18,17.00
2010,04,16,15,19,17.00
2010,04,16,15,20,17.10
2010,04,16,15,21,17.20
2010,04,16,15,22,17.20
2010,04,16,15,23,17.30
2010,04,16,15,24,17.30
2010,04,16,15,25,17.40
2010,04,16,15,26,17.40
2010,04,16,15,27,17.40
2010,04,16,15,28,17.50
2010,04,16,15,29,17.50
2010,04,16,15,30,17.60
2010,04,16,15,31,17.60
2010,04,16,15,32,17.70
2010,04,16,15,33,17.70
2010,04,16,15,34,17.80
2010,04,16,15,35,17.80
2010,04,16,15,36,17.80
2010,04,16,15,37,17.80
2010,04,16,15,38,17.90
2010,04,16,15,39,17.90
2010,04,16,15,40,17.90
2010,04,16,15,41,17.90
2010,04,16,15,42,17.90
2010,04,16,15,43,17.90
2010,04,16,15,44,17.90
2010,04,16,15,45,17.90
2010,04,16,15,46,17.90
2010,04,16,15,47,17.90
2010,04,16,15,48,17.90
2010,04,16,15,49,17.90
2010,04,16,15,50,17.80
2010,04,16,15,51,17.80
2010,04,16,15,52,17.80
2010,04,16,15,53,17.80
2010,04,16,15,54,17.80
2010,04,16,15,55,17.80
2010,04,16,15,56,17.80
2010,04,16,15,57,17.70
2010,04,16,15,58,17.60
2010,04,16,15,59,17.60
2010,04,16,16,00,17.50
2010,04,16,16,01,17.40
2010,04,16,16,02,17.30
2010,04,16,16,03,17.10
2010,04,16,16,04,17.00
2010,04,16,16,05,16.80
2010,04,16,16,06,16.70
2010,04,16,16,07,16.60
2010,04,16,16,08,16.60
2010,04,16,16,09,16.50
2010,04,16,16,10,16.40
2010,04,16,16,11,16.40
2010,04,16,16,12,16.40
2010,04,16,16,13,16.30
2010,04,16,16,14,16.30
2010,04,16,16,15,16.30
2010,04,16,16,16,16.30
2010,04,16,16,17,16.30
2010,04,16,16,18,16.20
2010,04,16,16,19,16.20
2010,04,16,16,20,16.20
2010,04,16,16,21,16.20
2010,04,16,16,22,16.20
2010,04,16,16,23,16.20
2010,04,16,16,24,16.20
2010,04,16,16,25,16.20
2010,04,16,16,26,16.30
2010,04,16,16,27,16.30
2010,04,16,16,28,16.30
2010,04,16,16,29,16.30
2010,04,16,16,30,16.30
2010,04,16,16,31,16.30
2010,04,16,16,32,16.30
2010,04,16,16,33,16.30
2010,04,16,16,34,16.30
2010,04,16,16,35,16.30
2010,04,16,16,36,16.30
2010,04,16,16,37,16.30
2010,04,16,16,38,16.40
2010,04,16,16,39,16.40
2010,04,16,16,40,16.50
2010,04,16,16,41,16.50
2010,04,16,16,42,16.60
2010,04,16,16,43,16.60
2010,04,16,16,44,16.60
2010,04,16,16,45,16.60
2010,04,16,16,46,16.60
2010,04,16,16,47,16.60
2010,04,16,16,48,16.60
2010,04,16,16,49,16.60
2010,04,16,16,50,16.50
2010,04,16,16,51,16.50
2010,04,16,16,52,16.40
2010,04,16,16,53,16.40
2010,04,16,16,54,16.40
2010,04,16,16,55,16.40
2010,04,16,16,56,16.40
2010,04,16,16,57,16.40
2010,04,16,16,58,16.40
2010,04,16,16,59,16.40
2010,04,16,17,00,16.40
2010,04,16,17,01,16.40
2010,04,16,17,02,16.40
2010,04,16,17,03,16.40
2010,04,16,17,04,16.40
2010,04,16,17,05,16.40
2010,04,16,17,06,16.40
2010,04,16,17,07,16.30
2010,04,16,17,08,16.30
2010,04,16,17,09,16.30
2010,04,16,17,10,16.20
2010,04,16,17,11,16.20
2010,04,16,17,12,16.20
2010,04,16,17,13,16.10
2010,04,16,17,14,16.10
2010,04,16,17,15,16.10
2010,04,16,17,16,16.10
2010,04,16,17,17,16.10
2010,04,16,17,18,16.10
2010,04,16,17,19,16.10
2010,04,16,17,20,16.10
2010,04,16,17,21,16.10
2010,04,16,17,22,16.10
2010,04,16,17,23,16.00
2010,04,16,17,24,16.10
2010,04,16,17,25,16.10
2010,04,16,17,26,16.00
2010,04,16,17,27,16.00
2010,04,16,17,28,16.00
2010,04,16,17,29,16.00
2010,04,16,17,30,16.00
2010,04,16,17,31,15.90
2010,04,16,17,32,15.90
2010,04,16,17,33,15.90
2010,04,16,17,34,15.90
2010,04,16,17,35,15.90
2010,04,16,17,36,15.90
2010,04,16,17,37,15.90
2010,04,16,17,38,15.90
2010,04,16,17,39,15.90
2010,04,16,17,40,15.90
2010,04,16,17,41,15.90
2010,04,16,17,42,16.00